Weather History for Naples, FL

Change the Weather History Date:

Thursday, August 1, 2013

  Actual Average Record
Temperature  
Mean Temperature 83 °F 83 °F  
Max Temperature 90 °F 91 °F 96 °F (1988)
Min Temperature 75 °F 75 °F 70 °F (1967)
Degree Days  
Heating Degree Days 0 0  
Month to date heating degree days 0 0  
Since 1 June heating degree days 0 0  
Since 1 July heating degree days 0 0  
Cooling Degree Days 18 18  
Month to date cooling degree days 18 18  
Year to date cooling degree days 2148 2112  
Since 1 June cooling degree days 1044 1084  
Growing Degree Days 32 (Base 50)    
Moisture  
Dew Point 74 °F    
Average Humidity 80    
Maximum Humidity 100    
Minimum Humidity 59    
Precipitation  
Precipitation 0.01 in 0.25 in 1.14 in (1946)
Month to date precipitation 0.01 0.25  
Year to date precipitation 28.17 28.19  
Snow  
Snow 0.00 in - - ()
Month to date snowfall 0.0  
Since 1 June snowfall 0.0  
Since 1 July snowfall 0.0  
Snow Depth 0.00 in    
Sea Level Pressure  
Sea Level Pressure 29.98 in    
Wind  
Wind Speed 5 mph (ESE)    
Max Wind Speed 22 mph    
Max Gust Speed 31 mph    
Visibility 9 miles    
Events Rain , Thunderstorm    
T = Trace of Precipitation, MM = Missing Value Source: NWS Daily Summary

Daily Weather History Graph

Daily Weather History Graph

Search for Another Location

Airport:

Trip Planner

Search our weather history database for the weather conditions in past years. The results will help you decide how hot, cold, wet, or windy it might be!

Date:

Astronomy

Aug. 01, 2013 Rise Set
Actual Time 6:52 AM EDT 8:13 PM EDT
Civil Twilight 6:28 AM EDT 8:38 PM EDT
Nautical Twilight 5:58 AM EDT 9:07 PM EDT
Astronomical Twilight 5:27 AM EDT 9:38 PM EDT
Moon 2:30 AM EDT (8/1) 4:17 PM EDT (8/1)
Length of Visible Light 14h 10m
Length of Day
13h 20m
Waning Crescent, 23% of the Moon is Illuminated
Aug 1
Waning Crescent
Aug 6
New
Aug 14
First Quarter
Aug 20
Full
Aug 28
Last Quarter

Hourly Weather History & Observations

Time (EDT) Temp. Heat Index Dew Point Humidity Pressure Visibility Wind Dir Wind Speed Gust Speed Precip Events Conditions
12:53 AM 78.1 °F - 75.9 °F 93% 30.05 in 10.0 mi Calm Calm - N/A   Clear
1:53 AM 77.0 °F - 75.0 °F 94% 30.02 in 9.0 mi ENE 4.6 mph - N/A   Clear
2:53 AM 75.9 °F - 75.0 °F 97% 29.99 in 9.0 mi ENE 5.8 mph - N/A   Clear
3:53 AM 75.0 °F - 73.9 °F 96% 29.96 in 8.0 mi East 4.6 mph - N/A   Clear
4:53 AM 75.9 °F - 73.9 °F 94% 29.96 in 9.0 mi East 3.5 mph - N/A   Clear
5:53 AM 75.0 °F - 73.9 °F 96% 29.97 in 9.0 mi Calm Calm - N/A   Clear
6:53 AM 75.0 °F - 73.9 °F 96% 29.99 in 7.0 mi NE 3.5 mph - N/A   Clear
7:53 AM 78.1 °F - 75.9 °F 93% 30.00 in 7.0 mi ENE 4.6 mph - N/A   Clear
8:53 AM 81.0 °F 87.3 °F 75.9 °F 85% 30.02 in 8.0 mi East 6.9 mph - N/A   Clear
9:53 AM 84.0 °F 93.7 °F 77.0 °F 79% 30.02 in 9.0 mi East 9.2 mph - N/A   Clear
10:53 AM 86.0 °F 95.1 °F 75.0 °F 70% 30.01 in 10.0 mi ESE 4.6 mph - N/A   Partly Cloudy
11:53 AM 88.0 °F 96.5 °F 73.9 °F 63% 30.02 in 10.0 mi SE 3.5 mph - N/A   Scattered Clouds
12:53 PM 90.0 °F 97.9 °F 73.0 °F 57% 30.01 in 10.0 mi ESE 5.8 mph - N/A   Mostly Cloudy
1:53 PM 89.1 °F 100.2 °F 75.9 °F 65% 29.99 in 10.0 mi SW 8.1 mph - N/A   Mostly Cloudy
2:53 PM 86.0 °F 95.1 °F 75.0 °F 70% 29.98 in 10.0 mi WSW 6.9 mph - N/A   Mostly Cloudy
3:53 PM 88.0 °F 98.5 °F 75.9 °F 67% 29.96 in 10.0 mi West 10.4 mph - N/A   Scattered Clouds
4:33 PM 84.2 °F 92.3 °F 75.2 °F 74% 29.95 in 9.0 mi SSW 10.4 mph - N/A   Mostly Cloudy
4:53 PM 86.0 °F 93.8 °F 73.9 °F 67% 29.93 in 10.0 mi SSW 8.1 mph - N/A   Clear
5:53 PM 88.0 °F 97.5 °F 75.0 °F 65% 29.93 in 10.0 mi West 9.2 mph - N/A   Clear
6:16 PM 87.8 °F 95.6 °F 73.4 °F 62% 29.93 in 10.0 mi WNW 8.1 mph - N/A Thunderstorm Scattered Clouds
6:53 PM 82.0 °F 85.9 °F 70.0 °F 67% 29.96 in 10.0 mi NNE 12.7 mph 31.1 mph N/A Thunderstorm Thunderstorm
7:53 PM 77.0 °F - 72.0 °F 84% 29.99 in 10.0 mi SE 8.1 mph - 0.00 in Thunderstorm Mostly Cloudy
8:09 PM 77.0 °F - 71.6 °F 83% 29.98 in 9.0 mi East 6.9 mph - 0.00 in Rain Light Rain
8:53 PM 77.0 °F - 73.9 °F 90% 29.99 in 10.0 mi SSE 5.8 mph - 0.01 in   Scattered Clouds
9:53 PM 78.1 °F - 73.9 °F 87% 29.99 in 10.0 mi Calm Calm - N/A   Mostly Cloudy
10:53 PM 78.1 °F - 75.9 °F 93% 29.99 in 10.0 mi North 3.5 mph - N/A   Overcast
11:53 PM 75.9 °F - 75.0 °F 97% 29.99 in 10.0 mi Calm Calm - N/A   Clear